Location: Mohawk View
(42.7837°N, 73.7885°W)
Time: 17:03:19
(UTC+00:00)

Lacrosse 4 Rocket - Pass Details

Date: 17 June 2021
Orbit: 543 x 614 km, 68.0° (Epoch: 02 August)

Event Time Altitude Azimuth Distance (km) Brightness Sun altitude
Rises 07:23:10 0° 334° (NNW) 2,745 5.3 -15.7°
Reaches altitude 10° 07:25:26 10° 339° (NNW) 1,837 4.4 -15.4°
Maximum altitude 07:29:28 55° 58° (ENE) 659 2.0 -15.0°
Drops below altitude 10° 07:33:25 10° 137° (SE) 1,804 3.8 -14.6°
Sets 07:35:38 0° 142° (SE) 2,691 4.7 -14.3°
